Greenwood, MS

3:26 PM CST on December 03, 2016 (GMT -0600)
Greenwood-Leflore

Weather History for KGWO - May, 2014

Change the Weather History Date:

Wednesday, May 7, 2014

  Actual Average Record
Temperature  
Mean Temperature 73 °F 69 °F  
Max Temperature 85 °F 81 °F 94 °F (1952)
Min Temperature 61 °F 58 °F 45 °F (1989)
Degree Days  
Heating Degree Days 0 1  
Month to date heating degree days 16 7  
Since 1 July heating degree days 3253 2678  
Cooling Degree Days 8 5  
Month to date cooling degree days 25 32  
Year to date cooling degree days 88 134  
Growing Degree Days 22 (Base 50)    
Moisture  
Dew Point 60 °F    
Average Humidity 67    
Maximum Humidity 90    
Minimum Humidity 44    
Precipitation  
Precipitation 0.00 in 0.17 in 4.04 in (1978)
Month to date precipitation 0.00 1.21  
Year to date precipitation 19.98 19.59  
Sea Level Pressure  
Sea Level Pressure 29.99 in    
Wind  
Wind Speed 13 mph (South)    
Max Wind Speed 23 mph    
Max Gust Speed 28 mph    
Visibility 10 miles    
Events      
T = Trace of Precipitation, MM = Missing Value Source: NWS Daily Summary

Daily Weather History Graph

Daily Weather History Graph

Search for Another Location

Airport or City:

Trip Planner

Search our weather history database for the weather conditions in past years. The results will help you decide how hot, cold, wet, or windy it might be!

Date:

Astronomy

May. 07, 2014 Rise Set
Actual Time 6:06 AM CDT 7:47 PM CDT
Civil Twilight 5:39 AM CDT 8:14 PM CDT
Nautical Twilight 5:07 AM CDT 8:47 PM CDT
Astronomical Twilight 4:32 AM CDT 9:21 PM CDT
Moon 1:13 PM CDT (5/7) 1:44 AM CDT (5/7)
Length of Visible Light 14h 35m
Length of Day
13h 41m
First Quarter, 55% of the Moon is Illuminated
May 7
First Quarter
May 14
Full
May 21
Last Quarter
May 28
New
Jun 5
First Quarter

Hourly Weather History & Observations

Time (CDT) Temp. Heat Index Dew Point Humidity Pressure Visibility Wind Dir Wind Speed Gust Speed Precip Events Conditions
12:53 AM 66.0 °F - 59.0 °F 78% 29.92 in 10.0 mi South 8.1 mph - N/A   Clear
1:53 AM 66.0 °F - 59.0 °F 78% 29.92 in 10.0 mi South 9.2 mph - N/A   Clear
2:53 AM 64.0 °F - 57.9 °F 80% 29.92 in 10.0 mi South 9.2 mph - N/A   Clear
3:53 AM 63.0 °F - 57.9 °F 84% 29.94 in 10.0 mi South 5.8 mph - N/A   Clear
4:53 AM 63.0 °F - 57.9 °F 84% 29.95 in 10.0 mi South 8.1 mph - N/A   Clear
5:53 AM 61.0 °F - 57.9 °F 90% 29.98 in 10.0 mi South 8.1 mph - N/A   Clear
6:53 AM 62.6 °F - 59.0 °F 88% 30.01 in 10.0 mi South 5.8 mph - N/A   Clear
7:53 AM 68.0 °F - 60.1 °F 76% 30.03 in 10.0 mi South 11.5 mph - N/A   Clear
8:53 AM 73.0 °F - 64.0 °F 73% 30.04 in 10.0 mi SSW 10.4 mph - N/A   Clear
9:53 AM 73.9 °F - 62.1 °F 66% 30.06 in 10.0 mi SSW 13.8 mph - N/A   Mostly Cloudy
10:53 AM 77.0 °F - 60.1 °F 56% 30.04 in 10.0 mi South 16.1 mph 23.0 mph N/A   Partly Cloudy
11:53 AM 80.6 °F 81.5 °F 60.8 °F 51% 30.04 in 10.0 mi SSW 20.7 mph 25.3 mph N/A   Partly Cloudy
12:53 PM 82.0 °F 82.7 °F 61.0 °F 49% 30.02 in 10.0 mi South 15.0 mph 24.2 mph N/A   Partly Cloudy
1:53 PM 81.0 °F 81.6 °F 60.1 °F 49% 30.02 in 10.0 mi South 20.7 mph 28.8 mph N/A   Scattered Clouds
2:53 PM 82.9 °F 82.8 °F 59.0 °F 44% 30.00 in 10.0 mi South 20.7 mph - N/A   Partly Cloudy
3:53 PM 84.9 °F 84.8 °F 60.1 °F 43% 29.98 in 10.0 mi South 18.4 mph 25.3 mph N/A   Clear
4:53 PM 84.0 °F 84.0 °F 60.1 °F 44% 29.97 in 10.0 mi South 18.4 mph - N/A   Clear
5:53 PM 82.9 °F 83.2 °F 60.1 °F 46% 29.97 in 10.0 mi South 18.4 mph - N/A   Clear
6:53 PM 80.1 °F 80.9 °F 60.1 °F 50% 29.96 in 10.0 mi South 12.7 mph - N/A   Clear
7:53 PM 75.9 °F - 60.1 °F 58% 29.96 in 10.0 mi SE 8.1 mph - N/A   Clear
8:53 PM 73.9 °F - 60.1 °F 62% 29.96 in 10.0 mi SSE 8.1 mph - N/A   Clear
9:53 PM 73.0 °F - 60.1 °F 64% 29.98 in 10.0 mi SSE 10.4 mph - N/A   Clear
10:53 PM 73.0 °F - 60.1 °F 64% 29.99 in 10.0 mi South 10.4 mph - N/A   Clear
11:53 PM 72.0 °F - 61.0 °F 68% 29.99 in 10.0 mi South 11.5 mph - N/A   Clear